Thief River Falls, MN

3:51 AM CDT on May 30, 2017 (GMT -0500)
Thief River Falls Regional

Weather History for KTVF - September, 2012

Change the Weather History Date:

Saturday, September 8, 2012

  Actual Average Record
Temperature  
Mean Temperature 53 °F -  
Max Temperature 64 °F 69 °F 93 °F (1978)
Min Temperature 42 °F 49 °F 35 °F (1992)
Degree Days  
Heating Degree Days 12    
Growing Degree Days 3 (Base 50)    
Moisture  
Dew Point 42 °F    
Average Humidity 65    
Maximum Humidity 82    
Minimum Humidity 42    
Precipitation  
Precipitation 0.00 in - - ()
Sea Level Pressure  
Sea Level Pressure 29.99 in    
Wind  
Wind Speed 10 mph (NW)    
Max Wind Speed 29 mph    
Max Gust Speed 38 mph    
Visibility 10 miles    
Events      
Averages and records for this station are not official NWS values.
T = Trace of Precipitation, MM = Missing Value Source: NWS Daily Summary

Daily Weather History Graph

Daily Weather History Graph

Search for Another Location

Airport or City:

Trip Planner

Search our weather history database for the weather conditions in past years. The results will help you decide how hot, cold, wet, or windy it might be!

Date:

Astronomy

Sep. 08, 2012 Rise Set
Actual Time 6:52 AM CDT 7:50 PM CDT
Civil Twilight 6:21 AM CDT 8:22 PM CDT
Nautical Twilight 5:43 AM CDT 8:59 PM CDT
Astronomical Twilight 5:03 AM CDT 9:39 PM CDT
Moon No Moon Rise 3:09 PM CDT (9/8)
Length of Visible Light 14h 00m
Length of Day
12h 57m
Waning Gibbous, 48% of the Moon is Illuminated
Sep 8
Waning Gibbous
Sep 15
New
Sep 22
First Quarter
Sep 29
Full
Oct 8
Last Quarter

Hourly Weather History & Observations

Time (CDT) Temp. Windchill Dew Point Humidity Pressure Visibility Wind Dir Wind Speed Gust Speed Precip Events Conditions
12:15 AM 44.6 °F - 39.2 °F 81% 30.02 in 10.0 mi Calm Calm - N/A   Clear
12:35 AM 44.6 °F - 39.2 °F 81% 30.02 in 10.0 mi Calm Calm - N/A   Clear
12:55 AM 44.6 °F - 39.2 °F 81% 30.01 in 10.0 mi Calm Calm - N/A   Clear
1:15 AM 44.6 °F - 39.2 °F 81% 30.00 in 10.0 mi Calm Calm - N/A   Clear
1:35 AM 44.6 °F - 39.2 °F 81% 29.99 in 10.0 mi Calm Calm - N/A   Clear
1:55 AM 44.6 °F - 39.2 °F 81% 29.98 in 10.0 mi Calm Calm - N/A   Clear
2:15 AM 42.8 °F - 37.4 °F 81% 29.98 in 10.0 mi Calm Calm - N/A   Clear
2:35 AM 42.8 °F 39.3 °F 37.4 °F 81% 29.97 in 10.0 mi SSW 5.8 mph - N/A   Clear
2:55 AM 44.6 °F 40.2 °F 39.2 °F 81% 29.96 in 10.0 mi SSW 8.1 mph - N/A   Clear
3:15 AM 46.4 °F 43.5 °F 39.2 °F 76% 29.96 in 10.0 mi SW 5.8 mph - N/A   Clear
3:35 AM 46.4 °F - 39.2 °F 76% 29.95 in 10.0 mi Calm Calm - N/A   Clear
3:55 AM 46.4 °F 42.9 °F 39.2 °F 76% 29.94 in 10.0 mi SW 6.9 mph - N/A   Clear
4:15 AM 46.4 °F 42.4 °F 39.2 °F 76% 29.93 in 10.0 mi SW 8.1 mph - N/A   Clear
4:35 AM 46.4 °F 42.9 °F 39.2 °F 76% 29.92 in 10.0 mi SW 6.9 mph - N/A   Clear
4:55 AM 46.4 °F 41.9 °F 39.2 °F 76% 29.92 in 10.0 mi SW 9.2 mph - N/A   Clear
5:15 AM 46.4 °F 42.4 °F 39.2 °F 76% 29.90 in 10.0 mi SW 8.1 mph - N/A   Clear
5:35 AM 46.4 °F 42.4 °F 39.2 °F 76% 29.89 in 10.0 mi SW 8.1 mph - N/A   Clear
5:55 AM 46.4 °F 42.9 °F 39.2 °F 76% 29.89 in 10.0 mi SW 6.9 mph - N/A   Partly Cloudy
6:15 AM 46.4 °F 42.4 °F 39.2 °F 76% 29.88 in 10.0 mi SW 8.1 mph - N/A   Mostly Cloudy
6:35 AM 46.4 °F 42.9 °F 39.2 °F 76% 29.89 in 10.0 mi WSW 6.9 mph - N/A   Scattered Clouds
6:55 AM 46.4 °F 42.9 °F 39.2 °F 76% 29.89 in 10.0 mi WSW 6.9 mph - N/A   Mostly Cloudy
7:15 AM 48.2 °F - 41.0 °F 76% 29.90 in 10.0 mi West 8.1 mph - N/A   Overcast
7:35 AM 51.8 °F - 42.8 °F 71% 29.90 in 10.0 mi WNW 9.2 mph - N/A   Overcast
7:55 AM 51.8 °F - 42.8 °F 71% 29.90 in 10.0 mi NW 10.4 mph - N/A   Overcast
8:15 AM 53.6 °F - 44.6 °F 72% 29.90 in 10.0 mi NW 8.1 mph - N/A   Overcast
8:35 AM 55.4 °F - 46.4 °F 72% 29.91 in 10.0 mi NNW 15.0 mph - N/A   Overcast
8:55 AM 55.4 °F - 46.4 °F 72% 29.91 in 10.0 mi NNW 17.3 mph - N/A   Overcast
9:15 AM 57.2 °F - 44.6 °F 63% 29.92 in 10.0 mi NNW 23.0 mph 29.9 mph N/A   Mostly Cloudy
9:35 AM 59.0 °F - 44.6 °F 59% 29.92 in 10.0 mi NNW 18.4 mph 27.6 mph N/A   Partly Cloudy
9:55 AM 59.0 °F - 42.8 °F 55% 29.93 in 10.0 mi NW 23.0 mph 31.1 mph N/A   Mostly Cloudy
10:15 AM 59.0 °F - 42.8 °F 55% 29.93 in 10.0 mi NNW 24.2 mph 31.1 mph N/A   Scattered Clouds
10:35 AM 60.8 °F - 42.8 °F 52% 29.93 in 10.0 mi NNW 26.5 mph 32.2 mph N/A   Partly Cloudy
10:55 AM 60.8 °F - 39.2 °F 45% 29.93 in 10.0 mi NNW 27.6 mph 35.7 mph N/A   Clear
11:15 AM 62.6 °F - 39.2 °F 42% 29.93 in 10.0 mi NW 23.0 mph 34.5 mph N/A   Clear
11:35 AM 62.6 °F - 42.8 °F 48% 29.93 in 10.0 mi NNW 27.6 mph 34.5 mph N/A   Scattered Clouds
11:55 AM 60.8 °F - 42.8 °F 52% 29.94 in 10.0 mi NW 25.3 mph 32.2 mph N/A   Overcast
12:15 PM 60.8 °F - 42.8 °F 52% 29.95 in 10.0 mi NW 21.9 mph 33.4 mph N/A   Overcast
12:35 PM 62.6 °F - 42.8 °F 48% 29.95 in 10.0 mi NW 26.5 mph 34.5 mph N/A   Overcast
12:55 PM 60.8 °F - 42.8 °F 52% 29.96 in 10.0 mi NW 20.7 mph 29.9 mph N/A   Overcast
1:15 PM 62.6 °F - 42.8 °F 48% 29.97 in 10.0 mi NNW 23.0 mph 29.9 mph N/A   Overcast
1:35 PM 62.6 °F - 42.8 °F 48% 29.97 in 10.0 mi NNW 23.0 mph 29.9 mph N/A   Overcast
1:55 PM 64.4 °F - 44.6 °F 49% 29.97 in 10.0 mi NNW 28.8 mph 38.0 mph N/A   Mostly Cloudy
2:15 PM 62.6 °F - 42.8 °F 48% 29.98 in 10.0 mi NW 25.3 mph 32.2 mph N/A   Overcast
2:35 PM 62.6 °F - 44.6 °F 52% 29.99 in 10.0 mi NNW 21.9 mph 31.1 mph N/A   Overcast
2:55 PM 62.6 °F - 42.8 °F 48% 30.00 in 10.0 mi NNW 21.9 mph 28.8 mph N/A   Overcast
3:15 PM 62.6 °F - 44.6 °F 52% 30.00 in 10.0 mi NNW 23.0 mph 33.4 mph N/A   Overcast
3:35 PM 62.6 °F - 44.6 °F 52% 30.02 in 10.0 mi NNW 23.0 mph 33.4 mph N/A   Overcast
3:55 PM 60.8 °F - 44.6 °F 55% 30.02 in 10.0 mi North 24.2 mph 32.2 mph N/A   Overcast
4:15 PM 62.6 °F - 44.6 °F 52% 30.03 in 10.0 mi NNW 25.3 mph 29.9 mph N/A   Overcast
4:35 PM 60.8 °F - 44.6 °F 55% 30.04 in 10.0 mi North 21.9 mph 29.9 mph N/A   Overcast
4:55 PM 60.8 °F - 44.6 °F 55% 30.04 in 10.0 mi NNW 21.9 mph 26.5 mph N/A   Overcast
5:15 PM 60.8 °F - 44.6 °F 55% 30.04 in 10.0 mi NNW 23.0 mph 29.9 mph N/A   Overcast
5:35 PM 60.8 °F - 44.6 °F 55% 30.05 in 10.0 mi NNW 18.4 mph 26.5 mph N/A   Overcast
5:55 PM 60.8 °F - 44.6 °F 55% 30.06 in 10.0 mi NNW 18.4 mph - N/A   Overcast
6:15 PM 60.8 °F - 44.6 °F 55% 30.06 in 10.0 mi NNW 21.9 mph 28.8 mph N/A   Overcast
6:35 PM 60.8 °F - 44.6 °F 55% 30.07 in 10.0 mi NNW 21.9 mph 26.5 mph N/A   Overcast
6:55 PM 60.8 °F - 44.6 °F 55% 30.08 in 10.0 mi NNW 16.1 mph 26.5 mph N/A   Overcast
7:15 PM 59.0 °F - 44.6 °F 59% 30.08 in 10.0 mi NNW 18.4 mph - N/A   Overcast
7:35 PM 59.0 °F - 44.6 °F 59% 30.09 in 10.0 mi NNW 12.7 mph - N/A   Overcast
7:55 PM 59.0 °F - 44.6 °F 59% 30.09 in 10.0 mi NNW 12.7 mph - N/A   Overcast
8:15 PM 57.2 °F - 44.6 °F 63% 30.10 in 10.0 mi NNW 12.7 mph - N/A   Overcast
8:35 PM 55.4 °F - 44.6 °F 67% 30.10 in 10.0 mi NW 9.2 mph - N/A   Scattered Clouds
8:55 PM 55.4 °F - 44.6 °F 67% 30.11 in 10.0 mi NNW 12.7 mph - N/A   Clear
9:15 PM 55.4 °F - 44.6 °F 67% 30.12 in 10.0 mi NNW 9.2 mph - N/A   Clear
9:35 PM 53.6 °F - 42.8 °F 67% 30.12 in 10.0 mi NNW 9.2 mph - N/A   Clear
9:55 PM 51.8 °F - 42.8 °F 71% 30.12 in 10.0 mi NNW 10.4 mph - N/A   Clear
10:15 PM 51.8 °F - 42.8 °F 71% 30.13 in 10.0 mi NNW 8.1 mph - N/A   Clear
10:35 PM 51.8 °F - 42.8 °F 71% 30.13 in 10.0 mi North 9.2 mph - N/A   Clear
11:15 PM 51.8 °F - 44.6 °F 76% 30.14 in 10.0 mi North 6.9 mph - N/A   Clear
11:55 PM 48.2 °F - 42.8 °F 82% 30.14 in 10.0 mi North 8.1 mph - N/A   Clear